EW0609 Weather Reports


time (UTC)temp
C
wind
direction
speed
KPH
gust
KPH
rain 1hr
cm
rain 24hr
cm
rain mn
cm
humidity
%
barometer
mb
20260904191307 37 171 9.7 16.1 0.00 0.00 0.00 29 1014.7
20260904191211 37 97 6.4 16.1 0.00 0.00 0.00 29 1014.7
20260904190304 37 172 6.4 17.7 0.00 0.00 0.00 31 1014.9
20260904185807 37 131 8.0 17.7 0.00 0.00 0.00 29 1014.9
20260904185310 37 272 3.2 9.7 0.00 0.00 0.00 30 1014.9
20260904184806 36 250 3.2 9.7 0.00 0.00 0.00 29 1015.1
20260904184306 36 175 4.8 11.3 0.00 0.00 0.00 31 1015.1
20260904183806 36 188 6.4 16.1 0.00 0.00 0.00 30 1015.3
20260904183305 37 186 4.8 16.1 0.00 0.00 0.00 31 1015.3
20260904182806 36 221 3.2 9.7 0.00 0.00 0.00 30 1015.4
20260904182306 37 220 4.8 14.5 0.00 0.00 0.00 31 1015.4
20260904181805 36 254 8.0 14.5 0.00 0.00 0.00 30 1015.4
20260904181306 36 185 4.8 16.1 0.00 0.00 0.00 31 1015.4
20260904181152 36 243 3.2 16.1 0.00 0.00 0.00 32 1015.5
20260904180306 36 219 4.8 11.3 0.00 0.00 0.00 33 1015.6
20260904175805 36 259 4.8 9.7 0.00 0.00 0.00 32 1015.5
20260904175311 36 238 6.4 9.7 0.00 0.00 0.00 33 1015.6
20260904174807 36 279 3.2 14.5 0.00 0.00 0.00 31 1015.8
20260904174305 36 193 4.8 14.5 0.00 0.00 0.00 33 1015.7
20260904173810 35 276 4.8 19.3 0.00 0.00 0.00 32 1015.8
20260904173306 35 247 11.3 19.3 0.00 0.00 0.00 33 1015.9
20260904172806 35 207 4.8 16.1 0.00 0.00 0.00 32 1015.9
20260904172306 35 240 6.4 14.5 0.00 0.00 0.00 36 1016.1
20260904172014 35 233 3.2 16.1 0.00 0.00 0.00 35 1015.9
20260904171925 35 193 3.2 11.3 0.00 0.00 0.00 34 1015.9
20260904171143 35 210 8.0 17.7 0.00 0.00 0.00 34 1016.1
20260904170537 35 241 6.4 14.5 0.00 0.00 0.00 35 1015.9
20260904170431 34 240 9.7 17.7 0.00 0.00 0.00 35 1016.1
20260904165306 35 231 3.2 14.5 0.00 0.00 0.00 37 1015.9
20260904164810 34 147 6.4 14.5 0.00 0.00 0.00 36 1015.9
20260904164639 34 259 8.0 16.1 0.00 0.00 0.00 39 1016.1
20260904163805 34 166 8.0 16.1 0.00 0.00 0.00 37 1015.9
20260904163646 33 197 4.8 9.7 0.00 0.00 0.00 38 1016.1
20260904162805 33 231 6.4 9.7 0.00 0.00 0.00 41 1015.9
20260904162307 33 257 3.2 11.3 0.00 0.00 0.00 39 1016.1
20260904161804 33 250 8.0 11.3 0.00 0.00 0.00 43 1016.1
20260904161305 32 244 6.4 11.3 0.00 0.00 0.00 44 1016.1
20260904160805 32 202 8.0 11.3 0.00 0.00 0.00 41 1015.9
20260904160656 32 248 1.6 8.0 0.00 0.00 0.00 43 1015.9
20260904155805 32 189 3.2 11.3 0.00 0.00 0.00 43 1015.8
20260904155307 31 209 4.8 11.3 0.00 0.00 0.00 44 1015.8
20260904154805 31 0 8.0 9.7 0.00 0.00 0.00 46 1015.8
20260904154308 31 0 4.8 9.7 0.00 0.00 0.00 46 1015.8
20260904153806 31 0 3.2 9.7 0.00 0.00 0.00 45 1015.7
20260904153305 30 0 3.2 11.3 0.00 0.00 0.00 48 1015.7
20260904152806 30 254 6.4 11.3 0.00 0.00 0.00 48 1015.7
20260904152616 30 0 1.6 11.3 0.00 0.00 0.00 48 1015.7
20260904151805 29 0 4.8 8.0 0.00 0.00 0.00 49 1015.8
20260904151305 28 0 0.0 8.0 0.00 0.00 0.00 52 1015.8
20260904151216 28 244 1.6 8.0 0.00 0.00 0.00 53 1015.7
20260904150307 27 231 0.0 6.4 0.00 0.00 0.00 54 1015.8
20260904145805 27 149 0.0 14.5 0.00 0.00 0.00 54 1015.7
20260904145306 27 172 4.8 14.5 0.00 0.00 0.00 56 1015.7
20260904144804 26 173 3.2 11.3 0.00 0.00 0.00 55 1015.8
20260904144304 26 128 4.8 9.7 0.00 0.00 0.00 57 1015.7
20260904143807 26 131 4.8 8.0 0.00 0.00 0.00 57 1015.8
20260904143643 26 164 4.8 8.0 0.00 0.00 0.00 58 1015.7
20260904143156 26 103 4.8 8.0 0.00 0.00 0.00 59 1015.7
20260904142307 25 157 4.8 8.0 0.00 0.00 0.00 61 1015.8
20260904141804 25 94 3.2 6.4 0.00 0.00 0.00 62 1015.6
20260904141304 24 151 3.2 4.8 0.00 0.00 0.00 63 1015.6
20260904141154 24 145 1.6 6.4 0.00 0.00 0.00 64 1015.7
20260904140305 24 102 1.6 6.4 0.00 0.00 0.00 65 1015.7
20260904135807 23 102 4.8 6.4 0.00 0.00 0.00 66 1015.7
20260904135306 23 97 0.0 8.0 0.00 0.00 0.00 68 1015.8
20260904134805 23 102 4.8 8.0 0.00 0.00 0.00 69 1015.7
20260904134304 22 124 3.2 8.0 0.00 0.00 0.00 70 1015.8
20260904133804 22 157 3.2 4.8 0.00 0.00 0.00 71 1015.7
20260904133305 22 127 0.0 8.0 0.00 0.00 0.00 72 1015.7
20260904132806 21 97 4.8 8.0 0.00 0.00 0.00 72 1015.6
20260904132307 21 104 3.2 6.4 0.00 0.00 0.00 73 1015.6
20260904132037 21 148 3.2 6.4 0.00 0.00 0.00 73 1015.6
20260904131807 21 148 3.2 6.4 0.00 0.00 0.00 73 1015.6
20260904131306 21 120 4.8 6.4 0.00 0.00 0.00 73 1015.5
20260904131025 21 99 0.0 0.0 0.00 0.00 0.00 73 1015.4
20260904130809 21 99 0.0 0.0 0.00 0.00 0.00 73 1015.4
20260904130305 21 151 0.0 1.6 0.00 0.00 0.00 73 1015.4
20260904125804 21 161 0.0 4.8 0.00 0.00 0.00 73 1015.3
20260904125305 21 176 1.6 6.4 0.00 0.00 0.00 72 1015.3
20260904124804 21 171 3.2 6.4 0.00 0.00 0.00 72 1015.3
20260904124334 21 173 3.2 9.7 0.00 0.00 0.00 71 1015.3
20260904123926 21 144 0.0 9.7 0.00 0.00 0.00 71 1015.2
20260904123024 22 169 3.2 9.7 0.00 0.00 0.00 70 1015.1
20260904122925 21 144 3.2 6.4 0.00 0.00 0.00 70 1015.1
20260904121805 22 159 1.6 9.7 0.00 0.00 0.00 70 1014.9
20260904121304 22 207 6.4 9.7 0.00 0.00 0.00 70 1015.1
20260904121140 22 171 4.8 9.7 0.00 0.00 0.00 70 1014.9
20260904120658 22 196 4.8 14.5 0.00 0.00 0.00 70 1014.8
20260904120139 22 196 4.8 14.5 0.00 0.00 0.00 70 1014.8
20260904115306 22 165 3.2 11.3 0.00 0.00 0.00 70 1014.9
20260904114806 22 228 4.8 9.7 0.00 0.00 0.00 70 1014.8
20260904114641 22 124 3.2 8.0 0.00 0.00 0.00 70 1015.1
20260904114153 22 173 4.8 9.7 0.00 0.00 0.00 71 1014.9
20260904113304 22 204 4.8 9.7 0.00 0.00 0.00 71 1014.9
20260904112806 22 180 6.4 11.3 0.00 0.00 0.00 71 1014.9
20260904112306 22 173 4.8 11.3 0.00 0.00 0.00 71 1014.8
20260904111806 22 176 3.2 6.4 0.00 0.00 0.00 71 1014.7
20260904111644 22 178 3.2 8.0 0.00 0.00 0.00 70 1014.7
20260904110805 22 185 1.6 8.0 0.00 0.00 0.00 70 1014.6
20260904110305 22 147 1.6 8.0 0.00 0.00 0.00 70 1014.5
20260904105804 22 147 4.8 8.0 0.00 0.00 0.00 70 1014.5
20260904105306 22 158 3.2 8.0 0.00 0.00 0.00 70 1014.5
20260904104805 22 144 4.8 9.7 0.00 0.00 0.00 70 1014.6
20260904104305 22 141 3.2 9.7 0.00 0.00 0.00 70 1014.5
20260904103804 22 131 3.2 9.7 0.00 0.00 0.00 70 1014.5
20260904103305 22 135 4.8 9.7 0.00 0.00 0.00 70 1014.5
20260904102804 22 87 3.2 8.0 0.00 0.00 0.00 70 1014.5
20260904102306 22 154 3.2 8.0 0.00 0.00 0.00 70 1014.5
20260904101805 22 118 4.8 9.7 0.00 0.00 0.00 70 1014.4
20260904101531 22 137 4.8 9.7 0.00 0.00 0.00 70 1014.3
20260904100805 22 118 4.8 9.7 0.00 0.00 0.00 71 1014.4
20260904100640 22 155 3.2 9.7 0.00 0.00 0.00 70 1014.2
20260904095804 22 110 4.8 9.7 0.00 0.00 0.00 71 1014.2
20260904095306 22 113 3.2 9.7 0.00 0.00 0.00 70 1014.2
20260904094803 22 92 6.4 9.7 0.00 0.00 0.00 70 1014.0
20260904094305 22 124 4.8 9.7 0.00 0.00 0.00 69 1014.2
20260904093804 22 127 6.4 8.0 0.00 0.00 0.00 69 1014.2
20260904093305 22 123 4.8 8.0 0.00 0.00 0.00 70 1014.0
20260904092804 22 110 4.8 9.7 0.00 0.00 0.00 70 1014.2
20260904092306 22 107 4.8 9.7 0.00 0.00 0.00 70 1014.2
20260904091808 21 123 3.2 8.0 0.00 0.00 0.00 70 1014.2
20260904091305 22 138 3.2 11.3 0.00 0.00 0.00 69 1014.2
20260904090804 22 116 1.6 11.3 0.00 0.00 0.00 68 1014.2
20260904090306 22 128 3.2 11.3 0.00 0.00 0.00 68 1014.2
20260904090135 22 134 4.8 9.7 0.00 0.00 0.00 67 1014.0
20260904085306 22 121 3.2 14.5 0.00 0.00 0.00 67 1014.0
20260904084806 22 142 3.2 14.5 0.00 0.00 0.00 67 1014.2
20260904084304 22 162 3.2 9.7 0.00 0.00 0.00 66 1014.2
20260904083804 22 155 3.2 9.7 0.00 0.00 0.00 66 1014.2
20260904083633 22 175 3.2 9.7 0.00 0.00 0.00 66 1014.3
20260904082804 22 107 4.8 9.7 0.00 0.00 0.00 67 1014.3
20260904082640 22 162 3.2 9.7 0.00 0.00 0.00 67 1014.3
20260904082141 22 148 4.8 8.0 0.00 0.00 0.00 67 1014.3
20260904081632 22 125 3.2 8.0 0.00 0.00 0.00 66 1014.3
20260904080804 22 157 4.8 8.0 0.00 0.00 0.00 66 1014.2
20260904080306 23 130 3.2 8.0 0.00 0.00 0.00 66 1014.3
20260904075807 22 127 3.2 9.7 0.00 0.00 0.00 66 1014.3
20260904075307 22 145 4.8 11.3 0.00 0.00 0.00 66 1014.2
20260904074804 22 140 4.8 11.3 0.00 0.00 0.00 66 1014.3
20260904074305 22 162 3.2 11.3 0.00 0.00 0.00 66 1014.3
20260904073805 22 114 6.4 11.3 0.00 0.00 0.00 66 1014.3
20260904073304 23 117 4.8 11.3 0.00 0.00 0.00 65 1014.2
20260904072804 23 89 4.8 14.5 0.00 0.00 0.00 65 1014.3
20260904072306 23 147 4.8 14.5 0.00 0.00 0.00 65 1014.4
20260904071804 23 148 3.2 14.5 0.00 0.00 0.00 65 1014.3
20260904071304 23 159 6.4 14.5 0.00 0.00 0.00 65 1014.4
20260904070805 23 180 4.8 14.5 0.00 0.00 0.00 64 1014.4
20260904070609 23 179 6.4 14.5 0.00 0.00 0.00 64 1014.4
20260904070141 23 149 4.8 11.3 0.00 0.00 0.00 64 1014.4
20260904065639 23 178 4.8 14.5 0.00 0.00 0.00 64 1014.6
20260904064805 23 151 6.4 14.5 0.00 0.00 0.00 64 1014.5
20260904064305 23 113 4.8 11.3 0.00 0.00 0.00 63 1014.5
20260904063803 23 151 6.4 11.3 0.00 0.00 0.00 63 1014.5
20260904063312 23 169 6.4 16.1 0.00 0.00 0.00 63 1014.6
20260904062805 23 106 6.4 16.1 0.00 0.00 0.00 63 1014.7
20260904062306 23 124 6.4 14.5 0.00 0.00 0.00 62 1014.6
20260904062104 23 190 4.8 14.5 0.00 0.00 0.00 62 1014.7
20260904061635 24 161 4.8 14.5 0.00 0.00 0.00 61 1014.7
20260904060804 24 137 3.2 11.3 0.00 0.00 0.00 60 1014.6
20260904060630 24 173 6.4 11.3 0.00 0.00 0.00 60 1014.6
20260904055804 25 135 4.8 11.3 0.00 0.00 0.00 59 1014.6
20260904055306 25 147 4.8 14.5 0.00 0.00 0.00 59 1014.5
20260904054804 25 142 6.4 14.5 0.00 0.00 0.00 59 1014.6
20260904054303 25 130 4.8 14.5 0.00 0.00 0.00 58 1014.7
20260904053804 25 117 4.8 11.3 0.00 0.00 0.00 58 1014.7
20260904053304 25 149 4.8 16.1 0.00 0.00 0.00 59 1014.7
20260904052805 25 214 6.4 16.1 0.00 0.00 0.00 58 1014.7
20260904052307 25 147 4.8 14.5 0.00 0.00 0.00 57 1014.7
20260904051804 25 142 6.4 19.3 0.00 0.00 0.00 57 1014.7
20260904051303 25 165 11.3 19.3 0.00 0.00 0.00 57 1014.7
20260904050804 25 99 6.4 16.1 0.00 0.00 0.00 57 1014.6
20260904050305 25 114 6.4 20.9 0.00 0.00 0.00 57 1014.6
20260904045804 25 118 8.0 20.9 0.00 0.00 0.00 57 1014.5
20260904045307 25 106 6.4 22.5 0.00 0.00 0.00 57 1014.5
20260904044806 25 175 9.7 22.5 0.00 0.00 0.00 56 1014.5
20260904044305 25 152 8.0 20.9 0.00 0.00 0.00 56 1014.6
20260904043804 25 127 11.3 20.9 0.00 0.00 0.00 56 1014.7
20260904043307 25 134 11.3 22.5 0.00 0.00 0.00 55 1014.7
20260904043134 25 128 11.3 22.5 0.00 0.00 0.00 55 1014.6
20260904042306 25 134 11.3 20.9 0.00 0.00 0.00 55 1014.6
20260904041804 25 131 9.7 20.9 0.00 0.00 0.00 54 1014.6
20260904041305 25 133 11.3 19.3 0.00 0.00 0.00 55 1014.5
20260904040803 25 111 9.7 20.9 0.00 0.00 0.00 55 1014.5
20260904040305 25 111 11.3 27.4 0.00 0.00 0.00 55 1014.6
20260904035804 25 99 12.9 27.4 0.00 0.00 0.00 56 1014.5
20260904035306 25 103 6.4 19.3 0.00 0.00 0.00 56 1014.6
20260904035142 25 140 8.0 19.3 0.00 0.00 0.00 55 1014.5
20260904034305 25 140 8.0 19.3 0.00 0.00 0.00 54 1014.6
20260904033805 25 93 8.0 19.3 0.00 0.00 0.00 54 1014.5
20260904033306 25 134 8.0 14.5 0.00 0.00 0.00 54 1014.6
20260904032804 25 96 6.4 14.5 0.00 0.00 0.00 55 1014.6
20260904032306 25 148 6.4 19.3 0.00 0.00 0.00 54 1014.6
20260904031803 25 117 11.3 20.9 0.00 0.00 0.00 54 1014.4
20260904031303 25 90 9.7 20.9 0.00 0.00 0.00 54 1014.4
20260904030805 25 137 12.9 22.5 0.00 0.00 0.00 54 1014.3
20260904030306 26 116 11.3 22.5 0.00 0.00 0.00 53 1014.3
20260904025806 26 116 9.7 20.9 0.00 0.00 0.00 53 1014.2
20260904025306 26 110 9.7 20.9 0.00 0.00 0.00 53 1014.2
20260904024803 26 128 8.0 19.3 0.00 0.00 0.00 53 1014.0
20260904024529 26 130 11.3 19.3 0.00 0.00 0.00 50 1014.0
20260904023805 26 109 9.7 17.7 0.00 0.00 0.00 46 1014.0
20260904023639 27 106 8.0 11.3 0.00 0.00 0.00 45 1013.9
20260904022804 27 116 6.4 11.3 0.00 0.00 0.00 44 1013.8
20260904022306 27 124 4.8 14.5 0.00 0.00 0.00 44 1013.6
20260904021804 27 109 6.4 14.5 0.00 0.00 0.00 45 1013.7
20260904021302 27 99 9.7 14.5 0.00 0.00 0.00 46 1013.6
20260904021132 27 94 8.0 19.3 0.00 0.00 0.00 45 1013.6
20260904020304 27 89 9.7 22.5 0.00 0.00 0.00 47 1013.5
20260904015804 26 103 11.3 22.5 0.00 0.00 0.00 48 1013.6
20260904015559 26 106 9.7 16.1 0.00 0.00 0.00 50 1013.6
20260904014806 26 82 6.4 14.5 0.00 0.00 0.00 52 1013.5
20260904014303 26 149 9.7 22.5 0.00 0.00 0.00 51 1013.5
20260904013804 26 107 11.3 22.5 0.00 0.00 0.00 51 1013.4
20260904013308 26 73 11.3 20.9 0.00 0.00 0.00 50 1013.4
20260904012804 27 124 6.4 20.9 0.00 0.00 0.00 50 1013.5
20260904012647 26 104 11.3 20.9 0.00 0.00 0.00 52 1013.5
20260904011804 26 120 6.4 37.0 0.00 0.00 0.00 53 1013.4
20260904011304 26 131 11.3 37.0 0.00 0.00 0.00 54 1013.4
20260904010805 26 141 14.5 33.8 0.00 0.00 0.00 53 1013.5
20260904010710 27 138 17.7 33.8 0.00 0.00 0.00 52 1013.5
20260904005804 27 133 16.1 30.6 0.00 0.00 0.00 52 1013.4
20260904005649 27 206 12.9 29.0 0.00 0.00 0.00 53 1013.4
20260904005140 27 140 9.7 29.0 0.00 0.00 0.00 53 1013.6
20260904004303 27 138 12.9 27.4 0.00 0.00 0.00 53 1013.7
20260904003806 27 159 12.9 24.1 0.00 0.00 0.00 52 1013.7
20260904003534 28 176 14.5 24.1 0.00 0.00 0.00 46 1013.8
20260904003429 28 154 9.7 24.1 0.00 0.00 0.00 48 1013.8
20260904002640 28 145 8.0 25.7 0.00 0.00 0.00 45 1013.6
20260904002038 28 190 11.3 25.7 0.00 0.00 0.00 49 1013.3
20260904001935 28 111 12.9 25.7 0.00 0.00 0.00 47 1013.4
20260904000803 28 100 12.9 27.4 0.00 0.00 0.00 49 1013.3
20260904000305 28 134 14.5 32.2 0.00 0.00 0.00 49 1013.2
20260903235803 28 99 17.7 32.2 0.00 0.00 0.00 48 1013.3
20260903235305 29 110 16.1 33.8 0.00 0.00 0.00 46 1013.3
20260903234805 29 123 20.9 33.8 0.00 0.00 0.00 46 1013.2
20260903234304 29 124 16.1 32.2 0.00 0.00 0.00 47 1013.2
20260903233805 29 121 17.7 33.8 0.00 0.00 0.00 47 1013.2
20260903233303 30 103 19.3 33.8 0.00 0.00 0.00 46 1013.2
20260903232803 30 71 14.5 33.8 0.00 0.00 0.00 44 1013.2
20260903232306 30 114 16.1 32.2 0.00 0.00 0.00 41 1013.3
20260903231814 30 114 14.5 37.0 0.00 0.00 0.00 41 1012.9
20260903231458 30 107 17.7 33.8 0.00 0.00 0.00 43 1012.9
20260903231403 30 82 19.3 37.0 0.00 0.00 0.00 42 1012.8
20260903230649 30 102 17.7 30.6 0.00 0.00 0.00 44 1012.8
20260903225803 30 120 20.9 30.6 0.00 0.00 0.00 44 1012.8
20260903225306 31 75 14.5 25.7 0.00 0.00 0.00 42 1012.7
20260903224803 31 137 11.3 22.5 0.00 0.00 0.00 40 1012.8
20260903224303 31 125 9.7 29.0 0.00 0.00 0.00 39 1013.0
20260903223804 33 120 16.1 29.0 0.00 0.00 0.00 33 1013.2
20260903223304 34 254 9.7 22.5 0.00 0.00 0.00 26 1012.8
20260903222805 35 231 8.0 17.7 0.00 0.00 0.00 27 1012.4
20260903222305 35 266 9.7 24.1 0.00 0.00 0.00 27 1012.3
20260903221803 34 266 9.7 24.1 0.00 0.00 0.00 28 1012.3
20260903221304 34 248 14.5 24.1 0.00 0.00 0.00 27 1012.3
20260903220805 34 295 12.9 25.7 0.00 0.00 0.00 26 1012.2
20260903220303 33 305 9.7 33.8 0.00 0.00 0.00 27 1012.3
20260903215803 33 261 14.5 33.8 0.00 0.00 0.00 26 1012.3
20260903215306 34 252 11.3 30.6 0.00 0.00 0.00 28 1012.3
20260903214804 33 310 11.3 25.7 0.00 0.00 0.00 30 1012.5
20260903214306 34 251 12.9 33.8 0.00 0.00 0.00 29 1012.6
20260903214147 35 274 19.3 33.8 0.00 0.00 0.00 28 1012.7
20260903213531 35 255 14.5 27.4 0.00 0.00 0.00 26 1012.5
20260903212805 35 276 11.3 19.3 0.00 0.00 0.00 27 1012.7
20260903212306 35 282 6.4 19.3 0.00 0.00 0.00 31 1012.7
20260903211807 35 272 6.4 17.7 0.00 0.00 0.00 30 1012.7
20260903211303 34 261 9.7 24.1 0.00 0.00 0.00 30 1012.7
20260903210803 34 269 11.3 24.1 0.00 0.00 0.00 30 1012.7
20260903210307 35 243 9.7 24.1 0.00 0.00 0.00 29 1012.7
20260903205804 35 296 11.3 22.5 0.00 0.00 0.00 29 1012.8
20260903205306 35 213 6.4 22.5 0.00 0.00 0.00 29 1012.8
20260903204804 35 219 6.4 22.5 0.00 0.00 0.00 28 1012.8
20260903204302 36 196 9.7 17.7 0.00 0.00 0.00 28 1012.8
20260903203803 36 204 6.4 17.7 0.00 0.00 0.00 27 1012.8
20260903203304 37 149 4.8 19.3 0.00 0.00 0.00 25 1012.9
20260903202804 38 166 6.4 19.3 0.00 0.00 0.00 26 1012.8
20260903202306 37 82 4.8 11.3 0.00 0.00 0.00 27 1012.9
20260903201808 37 275 6.4 11.3 0.00 0.00 0.00 27 1013.0
20260903201305 37 186 3.2 11.3 0.00 0.00 0.00 28 1013.2
20260903201132 38 116 3.2 17.7 0.00 0.00 0.00 27 1013.3
20260903200303 37 131 4.8 17.7 0.00 0.00 0.00 28 1013.3
20260903195803 36 251 9.7 17.7 0.00 0.00 0.00 27 1013.5
20260903195306 37 224 6.4 25.7 0.00 0.00 0.00 27 1013.4
20260903194809 37 182 12.9 25.7 0.00 0.00 0.00 25 1013.6
20260903194303 38 141 11.3 17.7 0.00 0.00 0.00 25 1013.6
20260903193803 38 123 6.4 16.1 0.00 0.00 0.00 26 1013.6
20260903193303 38 118 3.2 16.1 0.00 0.00 0.00 26 1013.6
20260903192803 38 217 6.4 14.5 0.00 0.00 0.00 26 1013.7
20260903192306 38 183 8.0 16.1 0.00 0.00 0.00 28 1013.7
20260903191802 38 231 6.4 17.7 0.00 0.00 0.00 28 1013.9